This is the latest recevied weather packets stored in our database for station/object XQ6AK-15. If no packets are shown the sender has not sent any weather packets the latest 10 day(s).
| Time | Temp. | Humidity | Pressure | Rain* | Wind** | Luminosity | Snow |
|---|---|---|---|---|---|---|---|
| 1787885030 | 7.78° C | 99% | 1005.4 hPa | 3.05 mm | - | 0 W/m² | - |
| 1787884725 | 7.78° C | 99% | 1005.5 hPa | 6.1 mm | - | 0 W/m² | - |
| 1787884420 | 7.78° C | 99% | 1005.4 hPa | 12.7 mm | - | 0 W/m² | - |
| 1787884116 | 8.33° C | 99% | 1005.5 hPa | 8.89 mm | - | 0 W/m² | - |
| 1787883812 | 8.33° C | 99% | 1005.3 hPa | 3.05 mm | - | 0 W/m² | - |
| 1787883507 | 8.33° C | 99% | 1005.3 hPa | 3.05 mm | - | 0 W/m² | - |
| 1787883206 | 8.33° C | 99% | 1005.1 hPa | 1.27 mm | - | 0 W/m² | - |
| 1787882901 | 7.78° C | 99% | 1005 hPa | 0 mm | - | 0 W/m² | - |
| 1787882598 | 7.78° C | 99% | 1004.8 hPa | 0 mm | - | 0 W/m² | - |
| 1787882294 | 7.78° C | 99% | 1004.9 hPa | 0 mm | - | 0 W/m² | - |
| 1787881993 | 7.78° C | 99% | 1004.8 hPa | 0 mm | - | 0 W/m² | - |
| 1787881688 | 7.78° C | 99% | 1004.9 hPa | 0 mm | - | 0 W/m² | - |
| 1787881384 | 7.78° C | 99% | 1004.8 hPa | 1.78 mm | - | 0 W/m² | - |
| 1787881079 | 7.78° C | 99% | 1004.5 hPa | 1.78 mm | - | 0 W/m² | - |
| 1787880769 | 7.78° C | 99% | 1004.5 hPa | 0 mm | - | 0 W/m² | - |
| 1787880468 | 7.78° C | 99% | 1004.4 hPa | 0 mm | - | 0 W/m² | - |
| 1787880162 | 7.78° C | 99% | 1004.4 hPa | 0 mm | - | 0 W/m² | - |
| 1787879856 | 7.78° C | 99% | 1004.4 hPa | 0 mm | - | 0 W/m² | - |
| 1787879552 | 7.78° C | 99% | 1004.4 hPa | 0 mm | - | 0 W/m² | - |
| 1787879247 | 7.78° C | 99% | 1004.2 hPa | 0 mm | - | 0 W/m² | - |
| 1787878945 | 7.78° C | 99% | 1004.2 hPa | 0 mm | - | 0 W/m² | - |
| 1787878643 | 7.78° C | 99% | 1004.2 hPa | 0 mm | - | 0 W/m² | - |
| 1787878338 | 7.78° C | 99% | 1004.2 hPa | 0 mm | - | 0 W/m² | - |
| 1787878034 | 7.78° C | 99% | 1004.1 hPa | 0 mm | - | 0 W/m² | - |
| 1787877730 | 7.78° C | 99% | 1004 hPa | 0 mm | - | 0 W/m² | - |
* Rain latest hour (hover to see other rain measurements)
** Current wind speed in m/s (hover to see current wind gust speed)